Time,TemperatureF,DewpointF,PressureIn,WindDirection,WindDirectionDegrees,WindSpeedMPH,WindSpeedGustMPH,Humidity,HourlyPrecipIn,Conditions,Clouds,dailyrainin,SoftwareType,DateUTC
2013-01-04 00:27:00,16.0,10.0,29.97,SE,146,0.0,0.0,76,0.00,,,0.00,weatherlink.com 1.10,2013-01-04 05:27:00,
2013-01-04 00:42:00,16.0,10.0,29.96,SE,146,0.0,0.0,76,0.00,,,0.00,weatherlink.com 1.10,2013-01-04 05:42:00,
2013-01-04 00:57:00,16.0,10.0,29.96,SE,146,0.0,0.0,76,0.00,,,0.00,weatherlink.com 1.10,2013-01-04 05:57:00,
2013-01-04 01:13:00,16.1,10.0,29.96,SE,146,0.0,0.0,77,0.00,,,0.00,weatherlink.com 1.10,2013-01-04 06:13:00,
2013-01-04 01:28:00,16.3,11.0,29.95,SE,146,0.0,0.0,78,0.00,,,0.00,weatherlink.com 1.10,2013-01-04 06:28:00,
2013-01-04 01:43:00,16.5,11.0,29.95,SE,146,0.0,0.0,78,0.00,,,0.00,weatherlink.com 1.10,2013-01-04 06:43:00,
2013-01-04 01:58:00,16.7,11.0,29.96,SE,146,0.0,0.0,78,0.00,,,0.00,weatherlink.com 1.10,2013-01-04 06:58:00,
2013-01-04 02:13:00,16.8,11.0,29.96,SE,146,0.0,0.0,78,0.00,,,0.00,weatherlink.com 1.10,2013-01-04 07:13:00,
2013-01-04 02:28:00,17.0,12.0,29.96,SE,146,0.0,0.0,79,0.00,,,0.00,weatherlink.com 1.10,2013-01-04 07:28:00,
2013-01-04 02:43:00,17.1,12.0,29.96,SE,146,0.0,0.0,80,0.00,,,0.00,weatherlink.com 1.10,2013-01-04 07:43:00,
2013-01-04 02:58:00,17.2,12.0,29.95,SE,146,0.0,0.0,81,0.00,,,0.00,weatherlink.com 1.10,2013-01-04 07:58:00,
2013-01-04 03:13:00,17.5,13.0,29.96,SE,146,0.0,0.0,82,0.00,,,0.00,weatherlink.com 1.10,2013-01-04 08:13:00,
2013-01-04 03:28:00,17.9,13.0,29.95,SE,146,0.0,0.0,82,0.00,,,0.00,weatherlink.com 1.10,2013-01-04 08:28:00,
2013-01-04 03:43:00,18.2,14.0,29.95,SE,146,0.0,0.0,82,0.00,,,0.00,weatherlink.com 1.10,2013-01-04 08:43:00,
2013-01-04 03:58:00,18.6,14.0,29.95,SE,146,0.0,0.0,83,0.00,,,0.00,weatherlink.com 1.10,2013-01-04 08:58:00,
2013-01-04 04:13:00,18.8,15.0,29.95,SE,146,0.0,0.0,83,0.00,,,0.00,weatherlink.com 1.10,2013-01-04 09:13:00,
2013-01-04 04:28:00,19.1,15.0,29.95,SE,146,0.0,0.0,84,0.00,,,0.00,weatherlink.com 1.10,2013-01-04 09:28:00,
2013-01-04 04:43:00,19.3,16.0,29.95,SE,146,0.0,0.0,85,0.00,,,0.00,weatherlink.com 1.10,2013-01-04 09:43:00,
2013-01-04 04:59:00,19.5,16.0,29.94,SE,146,0.0,0.0,85,0.00,,,0.00,weatherlink.com 1.10,2013-01-04 09:59:00,
2013-01-04 05:13:00,19.7,16.0,29.94,SE,146,0.0,0.0,86,0.00,,,0.00,weatherlink.com 1.10,2013-01-04 10:13:00,
2013-01-04 05:28:00,19.9,16.0,29.94,SE,146,0.0,0.0,86,0.00,,,0.00,weatherlink.com 1.10,2013-01-04 10:28:00,
2013-01-04 05:43:00,20.0,17.0,29.93,SE,146,0.0,0.0,87,0.00,,,0.00,weatherlink.com 1.10,2013-01-04 10:43:00,
2013-01-04 05:58:00,20.2,17.0,29.94,SE,146,0.0,0.0,87,0.00,,,0.00,weatherlink.com 1.10,2013-01-04 10:58:00,
2013-01-04 06:13:00,20.5,18.0,29.94,SE,146,0.0,0.0,88,0.00,,,0.00,weatherlink.com 1.10,2013-01-04 11:13:00,
2013-01-04 06:28:00,20.8,18.0,29.94,SE,146,0.0,0.0,88,0.00,,,0.00,weatherlink.com 1.10,2013-01-04 11:28:00,
2013-01-04 06:43:00,20.8,18.0,29.96,SE,146,0.0,0.0,88,0.00,,,0.00,weatherlink.com 1.10,2013-01-04 11:43:00,
2013-01-04 06:58:00,20.6,17.0,29.96,SE,146,0.0,0.0,87,0.00,,,0.00,weatherlink.com 1.10,2013-01-04 11:58:00,
2013-01-04 07:13:00,20.4,17.0,29.96,SE,145,0.0,3.0,88,0.00,,,0.00,weatherlink.com 1.10,2013-01-04 12:13:00,
2013-01-04 07:28:00,20.7,18.0,29.96,SE,145,0.0,1.0,89,0.00,,,0.00,weatherlink.com 1.10,2013-01-04 12:28:00,
2013-01-04 07:43:00,22.2,20.0,29.96,SW,219,0.0,2.0,89,0.00,,,0.00,weatherlink.com 1.10,2013-01-04 12:43:00,
2013-01-04 07:59:00,24.1,21.0,29.96,WSW,241,0.0,0.0,87,0.00,,,0.00,weatherlink.com 1.10,2013-01-04 12:59:00,
2013-01-04 08:14:00,24.9,21.0,29.95,WSW,241,0.0,0.0,86,0.00,,,0.00,weatherlink.com 1.10,2013-01-04 13:14:00,
2013-01-04 08:29:00,25.6,22.0,29.95,WSW,241,0.0,0.0,85,0.00,,,0.00,weatherlink.com 1.10,2013-01-04 13:29:00,
2013-01-04 08:44:00,27.3,23.0,29.94,WSW,241,0.0,0.0,82,0.00,,,0.00,weatherlink.com 1.10,2013-01-04 13:44:00,
2013-01-04 08:59:00,29.6,24.0,29.94,WSW,241,0.0,0.0,78,0.00,,,0.00,weatherlink.com 1.10,2013-01-04 13:59:00,
2013-01-04 09:14:00,32.0,24.0,29.94,WSW,241,0.0,1.0,72,0.00,,,0.00,weatherlink.com 1.10,2013-01-04 14:14:00,
2013-01-04 09:29:00,33.3,25.0,29.93,SSW,208,0.0,0.0,71,0.00,,,0.00,weatherlink.com 1.10,2013-01-04 14:29:00,
2013-01-04 09:44:00,33.9,25.0,29.93,WSW,246,0.0,6.0,69,0.00,,,0.00,weatherlink.com 1.10,2013-01-04 14:44:00,
2013-01-04 09:59:00,34.1,25.0,29.94,WSW,244,3.0,5.0,68,0.00,,,0.00,weatherlink.com 1.10,2013-01-04 14:59:00,
2013-01-04 10:14:00,34.6,25.0,29.93,WNW,294,6.0,9.0,67,0.00,,,0.00,weatherlink.com 1.10,2013-01-04 15:14:00,
2013-01-04 10:29:00,35.5,24.0,29.93,SW,217,3.0,11.0,64,0.00,,,0.00,weatherlink.com 1.10,2013-01-04 15:29:00,
2013-01-04 10:44:00,36.2,24.0,29.91,WSW,240,5.0,9.0,62,0.00,,,0.00,weatherlink.com 1.10,2013-01-04 15:44:00,
2013-01-04 10:59:00,36.4,24.0,29.90,WSW,250,8.0,11.0,61,0.00,,,0.00,weatherlink.com 1.10,2013-01-04 15:59:00,
2013-01-04 11:14:00,36.1,24.0,29.89,WSW,240,2.0,10.0,61,0.00,,,0.00,weatherlink.com 1.10,2013-01-04 16:14:00,
2013-01-04 11:29:00,36.1,23.0,29.88,West,280,0.0,8.0,60,0.00,,,0.00,weatherlink.com 1.10,2013-01-04 16:29:00,
2013-01-04 11:44:00,36.1,23.0,29.88,SW,227,5.0,8.0,60,0.00,,,0.00,weatherlink.com 1.10,2013-01-04 16:44:00,
2013-01-04 11:59:00,36.8,23.0,29.87,West,264,3.0,7.0,58,0.00,,,0.00,weatherlink.com 1.10,2013-01-04 16:59:00,
2013-01-04 12:14:00,38.1,23.0,29.86,WNW,288,4.0,9.0,56,0.00,,,0.00,weatherlink.com 1.10,2013-01-04 17:14:00,
2013-01-04 12:29:00,38.3,23.0,29.85,West,274,0.0,10.0,55,0.00,,,0.00,weatherlink.com 1.10,2013-01-04 17:29:00,
2013-01-04 12:44:00,37.7,23.0,29.85,West,271,4.0,11.0,55,0.00,,,0.00,weatherlink.com 1.10,2013-01-04 17:44:00,
2013-01-04 13:14:00,37.4,23.0,29.84,SSW,213,2.0,6.0,56,0.00,,,0.00,weatherlink.com 1.10,2013-01-04 18:14:00,
2013-01-04 13:29:00,37.7,23.0,29.84,WSW,248,3.0,8.0,55,0.00,,,0.00,weatherlink.com 1.10,2013-01-04 18:29:00,
2013-01-04 13:44:00,37.9,23.0,29.83,NW,309,4.0,4.0,56,0.00,,,0.00,weatherlink.com 1.10,2013-01-04 18:44:00,
2013-01-04 13:59:00,37.8,23.0,29.83,West,281,0.0,7.0,55,0.00,,,0.00,weatherlink.com 1.10,2013-01-04 18:59:00,
2013-01-04 14:14:00,37.9,23.0,29.83,WSW,257,0.0,6.0,56,0.00,,,0.00,weatherlink.com 1.10,2013-01-04 19:14:00,
2013-01-04 14:29:00,37.7,23.0,29.83,WNW,294,0.0,11.0,55,0.00,,,0.00,weatherlink.com 1.10,2013-01-04 19:29:00,
2013-01-04 14:44:00,37.6,23.0,29.83,West,281,4.0,14.0,55,0.00,,,0.00,weatherlink.com 1.10,2013-01-04 19:44:00,
2013-01-04 14:59:00,37.6,23.0,29.83,West,265,5.0,8.0,55,0.00,,,0.00,weatherlink.com 1.10,2013-01-04 19:59:00,
2013-01-04 15:14:00,37.7,23.0,29.83,WSW,251,3.0,8.0,55,0.00,,,0.00,weatherlink.com 1.10,2013-01-04 20:14:00,
2013-01-04 15:29:00,37.5,23.0,29.83,WNW,284,3.0,8.0,55,0.00,,,0.00,weatherlink.com 1.10,2013-01-04 20:29:00,
2013-01-04 15:44:00,37.3,23.0,29.83,WNW,284,0.0,6.0,56,0.00,,,0.00,weatherlink.com 1.10,2013-01-04 20:44:00,
2013-01-04 15:59:00,37.1,23.0,29.83,WNW,283,0.0,5.0,56,0.00,,,0.00,weatherlink.com 1.10,2013-01-04 20:59:00,
2013-01-04 16:14:00,36.8,23.0,29.83,West,279,0.0,4.0,57,0.00,,,0.00,weatherlink.com 1.10,2013-01-04 21:14:00,
2013-01-04 16:45:00,35.9,22.0,29.84,WNW,294,0.0,8.0,57,0.00,,,0.00,weatherlink.com 1.10,2013-01-04 21:45:00,
2013-01-04 16:59:00,35.6,22.0,29.84,WNW,284,0.0,6.0,58,0.00,,,0.00,weatherlink.com 1.10,2013-01-04 21:59:00,
2013-01-04 17:14:00,35.2,22.0,29.84,WNW,284,0.0,1.0,58,0.00,,,0.00,weatherlink.com 1.10,2013-01-04 22:14:00,
2013-01-04 17:29:00,34.6,21.0,29.84,WNW,284,0.0,2.0,59,0.00,,,0.00,weatherlink.com 1.10,2013-01-04 22:29:00,
2013-01-04 17:45:00,33.8,21.0,29.84,WNW,284,0.0,0.0,61,0.00,,,0.00,weatherlink.com 1.10,2013-01-04 22:45:00,
2013-01-04 18:00:00,32.3,21.0,29.85,NW,319,0.0,2.0,63,0.00,,,0.00,weatherlink.com 1.10,2013-01-04 23:00:00,
2013-01-04 18:15:00,30.9,21.0,29.85,NW,319,0.0,0.0,66,0.00,,,0.00,weatherlink.com 1.10,2013-01-04 23:15:00,
2013-01-04 18:30:00,29.6,21.0,29.86,NW,319,0.0,0.0,69,0.00,,,0.00,weatherlink.com 1.10,2013-01-04 23:30:00,
2013-01-04 18:45:00,28.4,21.0,29.86,West,280,0.0,3.0,73,0.00,,,0.00,weatherlink.com 1.10,2013-01-04 23:45:00,
2013-01-04 19:00:00,28.0,20.0,29.86,West,280,0.0,0.0,73,0.00,,,0.00,weatherlink.com 1.10,2013-01-05 00:00:00,
2013-01-04 19:15:00,27.3,20.0,29.86,West,280,0.0,0.0,74,0.00,,,0.00,weatherlink.com 1.10,2013-01-05 00:15:00,
2013-01-04 19:30:00,26.5,20.0,29.86,West,280,0.0,0.0,75,0.00,,,0.00,weatherlink.com 1.10,2013-01-05 00:30:00,
2013-01-04 19:45:00,25.6,20.0,29.86,West,280,0.0,0.0,78,0.00,,,0.00,weatherlink.com 1.10,2013-01-05 00:45:00,
2013-01-04 20:01:00,24.9,19.0,29.86,West,280,0.0,0.0,78,0.00,,,0.00,weatherlink.com 1.10,2013-01-05 01:01:00,
2013-01-04 20:15:00,24.4,19.0,29.86,West,280,0.0,0.0,81,0.00,,,0.00,weatherlink.com 1.10,2013-01-05 01:15:00,
2013-01-04 20:30:00,24.0,20.0,29.87,West,280,0.0,0.0,83,0.00,,,0.00,weatherlink.com 1.10,2013-01-05 01:30:00,
2013-01-04 20:45:00,24.0,20.0,29.87,West,280,0.0,0.0,84,0.00,,,0.00,weatherlink.com 1.10,2013-01-05 01:45:00,
2013-01-04 21:00:00,24.5,21.0,29.87,NW,304,0.0,0.0,85,0.00,,,0.00,weatherlink.com 1.10,2013-01-05 02:00:00,
2013-01-04 21:15:00,25.3,21.0,29.87,NW,304,0.0,0.0,84,0.00,,,0.00,weatherlink.com 1.10,2013-01-05 02:15:00,
2013-01-04 21:30:00,25.9,21.0,29.88,SSW,197,0.0,0.0,83,0.00,,,0.00,weatherlink.com 1.10,2013-01-05 02:30:00,
2013-01-04 21:45:00,26.5,22.0,29.88,NNW,328,0.0,0.0,82,0.00,,,0.00,weatherlink.com 1.10,2013-01-05 02:45:00,
2013-01-04 22:00:00,30.1,22.0,29.88,WSW,247,1.0,6.0,71,0.00,,,0.00,weatherlink.com 1.10,2013-01-05 03:00:00,
2013-01-04 22:15:00,31.9,22.0,29.88,WSW,256,2.0,6.0,67,0.00,,,0.00,weatherlink.com 1.10,2013-01-05 03:15:00,
2013-01-04 22:30:00,32.6,22.0,29.88,West,264,0.0,6.0,65,0.00,,,0.00,weatherlink.com 1.10,2013-01-05 03:30:00,
2013-01-04 22:45:00,33.0,22.0,29.89,NW,321,3.0,15.0,65,0.00,,,0.00,weatherlink.com 1.10,2013-01-05 03:45:00,
2013-01-04 23:00:00,33.5,23.0,29.89,WNW,300,2.0,9.0,65,0.00,,,0.00,weatherlink.com 1.10,2013-01-05 04:00:00,
2013-01-04 23:15:00,33.7,23.0,29.90,NW,309,7.0,10.0,65,0.00,,,0.00,weatherlink.com 1.10,2013-01-05 04:15:00,
2013-01-04 23:30:00,33.7,23.0,29.89,WNW,290,10.0,24.0,66,0.00,,,0.00,weatherlink.com 1.10,2013-01-05 04:30:00,
2013-01-04 23:45:00,33.9,24.0,29.89,NW,304,0.0,12.0,66,0.00,,,0.00,weatherlink.com 1.10,2013-01-05 04:45:00,